[[{"header":{"parameterUnit":"m.s-1","parameterCategory":1,"la1":30.2991,"la2":30.254,"lo1":-89.0895,"lo2":-89.0444,"dy":0.0017,"dx":0.0017,"nx":28,"ny":28,"refTime":"2025-09-16T03:00:00:Z","depth":0,"parameterNumber":2,"parameterNumberName":"U-component_of_WINDS"},"data":[0,0,0,0,0,0,0,0,0,0,0,0,0,0,0,0,0,0,0,0,0,0,0,0,0,0,0,0,0,0,0,0,0,0,0,0,0,0,0,0,0,0,0,0,0,0,0,0,0,0,0,0,0,0,0,0,0,0,0.835,0.835,0,0.8328,0.8327,0.8327,0.8357,0.8358,0.8359,0.836,0.8334,0.8333,0.8331,0,0,0,0,0,0,0,0,0,0,0,0,0,0.8417,0.8415,0.835,0.835,0.8349,0.8328,0.8327,0.8327,0.8357,0.8358,0.8359,0.836,0.8335,0.8333,0.8331,0,0,0,0,0,0,0,0,0,0,0,0,0,0.839,0.8415,0.835,0.8361,0.8362,0.8328,0.8327,0.8327,0.8356,0.8358,0.8359,0.8361,0.8335,0.8333,0.833,0.8283,0,0,0.8323,0.8322,0,0,0,0,0,0,0,0,0.8392,0.8388,0.836,0.8361,0.8361,0.8347,0.8342,0.8312,0.8356,0.8358,0.836,0.8362,0.8337,0.8334,0.8327,0.8281,0.828,0.8323,0.8321,0.832,0.8319,0,0,0,0,0,0,0,0.8393,0.8389,0.8341,0.836,0.836,0.8367,0.8365,0.8336,0.8339,0.8358,0.836,0.8358,0.8338,0.8329,0.8326,0.828,0.8323,0.832,0.8319,0.8318,0.8196,0.8195,0,0,0,0,0,0,0.8394,0.839,0.8342,0.834,0.8381,0.8365,0.8363,0.835,0.8339,0.8339,0.8356,0.8359,0.8332,0.8329,0.8325,0.8269,0.832,0.8318,0.8316,0.8198,0.8196,0.8194,0,0,0,0,0,0,0.8396,0.839,0.8343,0.8366,0.836,0.8362,0.8347,0.8348,0.834,0.8338,0.8338,0.8347,0.8334,0.8329,0.8294,0.8269,0.8316,0.8314,0.82,0.8197,0.8195,0.8157,0,0,0,0,0,0,0.8397,0.839,0.8372,0.8365,0.8359,0.8311,0.8346,0.8347,0.8336,0.8339,0.8329,0.8329,0.8334,0.8297,0.8291,0.8266,0.8312,0.8202,0.8199,0.8196,0.816,0.8153,0.8147,0,0,0,0,0,0.84,0.8361,0.8371,0.8365,0.8337,0.831,0.8306,0.8314,0.8334,0.8315,0.8314,0.8329,0.8273,0.8293,0.8287,0.8261,0.8204,0.82,0.8196,0.8163,0.8154,0.8147,0,0,0,0,0,0,0.8362,0.836,0.8371,0.8329,0.832,0.8315,0.8292,0.8305,0.8289,0.8292,0.8303,0.83,0.8263,0.8258,0.8281,0.8215,0.8242,0.8236,0.8219,0.8211,0.8204,0.8205,0.831,0,0,0,0,0,0.835,0.8329,0.8328,0.8291,0.8286,0.829,0.8278,0.8286,0.8276,0.8272,0.8268,0.8257,0.8238,0.8224,0.8206,0.816,0.8159,0.8139,0.8133,0.8128,0.8122,0.8099,0.8091,0.8182,0.8182,0.8182,0,0,0.8322,0.8319,0.8304,0.8283,0.8277,0.8255,0.8286,0.8261,0.8245,0.8268,0.8234,0.8232,0.8221,0.8181,0.8163,0.8176,0.8098,0.8123,0.8119,0.8116,0.8094,0.8086,0.8078,0.8179,0.8179,0.818,0,0,0.8261,0.8256,0.8226,0.822,0.821,0.8214,0.8206,0.82,0.82,0.8167,0.8185,0.8165,0.8131,0.8122,0.8114,0.8053,0.8066,0.8047,0.8012,0.7989,0.7982,0.7976,0.7954,0.7946,0.8042,0.8042,0.8042,0,0.8228,0.8196,0.8208,0.8182,0.8173,0.8195,0.8164,0.8157,0.8142,0.8134,0.815,0.8108,0.8102,0.8061,0.8047,0.8039,0.8031,0.8047,0.7982,0.7976,0.797,0.795,0.7942,0.8039,0.804,0.804,0.804,0,0.8156,0.8134,0.811,0.8097,0.8085,0.8056,0.8064,0.805,0.806,0.8062,0.8029,0.8023,0.8004,0.7995,0.8003,0.7956,0.7964,0.7981,0.8008,0.7959,0.794,0.7932,0.8036,0.8037,0.8038,0.8038,0,0,0.8068,0.8064,0.8055,0.805,0.8043,0.8026,0.7999,0.7982,0.7971,0.796,0.7938,0.791,0.7926,0.7916,0.7924,0.7904,0.7857,0.7923,0.7923,0.7911,0.7805,0.7791,0.7782,0.7866,0.7865,0.7864,0.7805,0,0.8007,0.7962,0.7973,0.7928,0.7909,0.7931,0.7908,0.7901,0.7902,0.7886,0.7887,0.7867,0.789,0.7884,0.7866,0.7866,0.7835,0.7871,0.7845,0.7844,0.7846,0.7772,0.7758,0.7703,0.7798,0.7797,0.7796,0,0.7929,0.7918,0.7872,0.787,0.7862,0.7841,0.7827,0.7811,0.7804,0.7807,0.7797,0.781,0.7784,0.7812,0.7776,0.78,0.7791,0.779,0.7788,0.7785,0.7816,0.7766,0.7686,0.7677,0.7784,0.7785,0.7786,0,0.787,0.7843,0.7812,0.7807,0.7804,0.7789,0.7787,0.7782,0.7772,0.776,0.7754,0.7739,0.773,0.7718,0.7726,0.7746,0.7689,0.7718,0.769,0.769,0.7676,0.7676,0.7592,0.7671,0.7671,0.7672,0.7672,0,0.78,0.7771,0.7786,0.7766,0.7735,0.7748,0.7716,0.7717,0.7712,0.7694,0.7712,0.7694,0.7706,0.7689,0.7695,0.7665,0.7661,0.7662,0.7664,0.766,0.766,0.7653,0.7657,0.7669,0.767,0.767,0.7671,0,0.7727,0.7736,0.7704,0.7705,0.7705,0.7681,0.7681,0.7664,0.7668,0.7644,0.764,0.7646,0.7627,0.7635,0.7614,0.7619,0.758,0.7587,0.7582,0.7584,0.7556,0.7558,0.7462,0.7451,0.7539,0.7538,0.7537,0,0.7682,0.766,0.7659,0.7649,0.7646,0.7629,0.7619,0.7633,0.7622,0.7614,0.7597,0.7581,0.7568,0.7537,0.7539,0.7524,0.753,0.7498,0.7528,0.7525,0.753,0.753,0.7529,0.7492,0.7491,0.749,0.7489,0,0.76,0.7606,0.7592,0.758,0.7569,0.756,0.7552,0.7543,0.7556,0.7543,0.7525,0.7515,0.7496,0.7479,0.7466,0.7464,0.7478,0.748,0.7473,0.7468,0.7466,0.7467,0.7565,0.7482,0.7482,0.7483,0.7483,0.7484,0.7539,0.7521,0.7518,0.7503,0.7499,0.7493,0.7477,0.748,0.7466,0.7452,0.7461,0.7439,0.7435,0.742,0.7416,0.7399,0.7412,0.7401,0.7398,0.7395,0.7391,0.747,0.7397,0.7397,0.7397,0.7397,0.7398,0,0.7457,0.7458,0.7443,0.7434,0.7422,0.7439,0.7432,0.7421,0.7402,0.7398,0.7386,0.7365,0.735,0.7352,0.7338,0.7325,0.7331,0.732,0.7321,0.732,0.7381,0.7389,0.7315,0.7316,0.7316,0.7316,0.7316,0.7316,0.7413,0.7385,0.7391,0.7361,0.7362,0.7342,0.7337,0.7331,0.7328,0.7305,0.7293,0.7295,0.7293,0.728,0.7266,0.7268,0.7261,0.7248,0.7251,0.7308,0.7316,0.7323,0.7331,0.7247,0.7246,0.7192,0.7191,0.7191]},{"header":{"parameterUnit":"m.s-1","parameterCategory":1,"la1":30.2991,"la2":30.254,"lo1":-89.0895,"lo2":-89.0444,"dy":0.0017,"dx":0.0017,"nx":28,"ny":28,"refTime":"2025-09-16T03:00:00:Z","depth":0,"parameterNumber":3,"parameterNumberName":"V-component_of_WINDS"},"data":[0,0,0,0,0,0,0,0,0,0,0,0,0,0,0,0,0,0,0,0,0,0,0,0,0,0,0,0,0,0,0,0,0,0,0,0,0,0,0,0,0,0,0,0,0,0,0,0,0,0,0,0,0,0,0,0,0,0,-2.2267,-2.2267,0,-2.2304,-2.2304,-2.2305,-2.2283,-2.2282,-2.2281,-2.228,-2.2317,-2.2319,-2.2321,0,0,0,0,0,0,0,0,0,0,0,0,0,-2.2176,-2.2177,-2.2267,-2.2267,-2.2268,-2.2304,-2.2305,-2.2305,-2.2283,-2.2282,-2.228,-2.2279,-2.2316,-2.2318,-2.2321,0,0,0,0,0,0,0,0,0,0,0,0,0,-2.2214,-2.2178,-2.2267,-2.2261,-2.2261,-2.2304,-2.2305,-2.2305,-2.2283,-2.2282,-2.228,-2.2278,-2.2315,-2.2318,-2.2321,-2.2371,0,0,-2.233,-2.2331,0,0,0,0,0,0,0,0,-2.2212,-2.2218,-2.2261,-2.2261,-2.2261,-2.2287,-2.2286,-2.2327,-2.2284,-2.2275,-2.228,-2.2278,-2.2308,-2.2311,-2.2322,-2.2373,-2.2375,-2.233,-2.2332,-2.2333,-2.2334,0,0,0,0,0,0,0,-2.2209,-2.2216,-2.2281,-2.2262,-2.2262,-2.2256,-2.226,-2.2294,-2.23,-2.2275,-2.2274,-2.2279,-2.2308,-2.2319,-2.2323,-2.2375,-2.233,-2.2333,-2.2335,-2.2336,-2.2471,-2.2473,0,0,0,0,0,0,-2.2207,-2.2214,-2.228,-2.2282,-2.2232,-2.2259,-2.2264,-2.228,-2.2299,-2.2301,-2.228,-2.2277,-2.2315,-2.2319,-2.2324,-2.2385,-2.2333,-2.2336,-2.2338,-2.2469,-2.2472,-2.2474,0,0,0,0,0,0,-2.2205,-2.2213,-2.2279,-2.2248,-2.2256,-2.2263,-2.2282,-2.2282,-2.2293,-2.2303,-2.2304,-2.2291,-2.2314,-2.232,-2.236,-2.2386,-2.2338,-2.234,-2.2467,-2.247,-2.2473,-2.2508,0,0,0,0,0,0,-2.2203,-2.2213,-2.2232,-2.2248,-2.2257,-2.2315,-2.2283,-2.2284,-2.2299,-2.2296,-2.2313,-2.2314,-2.2313,-2.2356,-2.2363,-2.239,-2.2343,-2.2465,-2.2468,-2.2472,-2.2505,-2.2512,-2.2518,0,0,0,0,0,-2.22,-2.224,-2.2233,-2.2241,-2.2282,-2.2316,-2.2321,-2.2319,-2.2301,-2.232,-2.2327,-2.2314,-2.2382,-2.236,-2.2368,-2.2396,-2.2463,-2.2467,-2.2471,-2.2502,-2.251,-2.2517,0,0,0,0,0,0,-2.2226,-2.2242,-2.2235,-2.2281,-2.2298,-2.2312,-2.2337,-2.2328,-2.2349,-2.2346,-2.2342,-2.2346,-2.2389,-2.2396,-2.2371,-2.2446,-2.242,-2.2426,-2.244,-2.2448,-2.2455,-2.2452,-2.2345,0,0,0,0,0,-2.2237,-2.2264,-2.2276,-2.2316,-2.2325,-2.233,-2.2345,-2.2342,-2.2358,-2.2365,-2.2374,-2.239,-2.2415,-2.2432,-2.2456,-2.2505,-2.2509,-2.2528,-2.2535,-2.254,-2.2546,-2.2574,-2.2583,-2.2487,-2.2487,-2.2487,0,0,-2.226,-2.2273,-2.229,-2.2322,-2.2334,-2.2363,-2.2336,-2.2366,-2.2387,-2.2369,-2.2409,-2.2416,-2.2434,-2.248,-2.25,-2.2487,-2.2573,-2.2545,-2.2549,-2.2552,-2.2579,-2.2588,-2.2596,-2.249,-2.2489,-2.2489,0,0,-2.2318,-2.2329,-2.2365,-2.2378,-2.2397,-2.24,-2.2409,-2.2425,-2.243,-2.2469,-2.2457,-2.2481,-2.2524,-2.2538,-2.2551,-2.2615,-2.2604,-2.2622,-2.2657,-2.2685,-2.2692,-2.2699,-2.2723,-2.2731,-2.2628,-2.2628,-2.2628,0,-2.2344,-2.2387,-2.2384,-2.2416,-2.2431,-2.2417,-2.2453,-2.2466,-2.2492,-2.2502,-2.2487,-2.2542,-2.2553,-2.2603,-2.2619,-2.2629,-2.2639,-2.2621,-2.2691,-2.2698,-2.2704,-2.2727,-2.2736,-2.263,-2.263,-2.2629,-2.2629,0,-2.2419,-2.2448,-2.2475,-2.2501,-2.2519,-2.2553,-2.2555,-2.2574,-2.257,-2.2574,-2.2615,-2.2628,-2.2655,-2.2666,-2.2661,-2.2715,-2.2707,-2.2692,-2.2665,-2.2716,-2.2737,-2.2746,-2.2633,-2.2632,-2.2632,-2.2631,0,0,-2.2494,-2.2519,-2.2529,-2.2541,-2.2562,-2.2585,-2.2618,-2.2645,-2.2662,-2.268,-2.2708,-2.2746,-2.2732,-2.2747,-2.2744,-2.2768,-2.282,-2.275,-2.275,-2.2764,-2.2881,-2.2893,-2.2903,-2.2812,-2.2814,-2.2815,-2.288,0,-2.2553,-2.2613,-2.2612,-2.2667,-2.2695,-2.2682,-2.2711,-2.2727,-2.2733,-2.2757,-2.2762,-2.279,-2.2769,-2.2778,-2.2801,-2.2808,-2.2843,-2.2803,-2.2839,-2.2841,-2.2837,-2.2914,-2.2927,-2.2987,-2.2888,-2.289,-2.2891,0,-2.2631,-2.2653,-2.2711,-2.2729,-2.2741,-2.2767,-2.2793,-2.2816,-2.2834,-2.2836,-2.2853,-2.2847,-2.2881,-2.2853,-2.2901,-2.2874,-2.2888,-2.2894,-2.2896,-2.2901,-2.2869,-2.2922,-2.3006,-2.3016,-2.2903,-2.2902,-2.2902,0,-2.2681,-2.2725,-2.2767,-2.2777,-2.2799,-2.2818,-2.2828,-2.2844,-2.2861,-2.2883,-2.2894,-2.2919,-2.2933,-2.2953,-2.2954,-2.2933,-2.3002,-2.2974,-2.3006,-2.3006,-2.3022,-2.3021,-2.3111,-2.3029,-2.3029,-2.3029,-2.3029,0,-2.2749,-2.2785,-2.279,-2.2815,-2.2856,-2.2854,-2.2894,-2.2902,-2.2917,-2.2944,-2.2934,-2.296,-2.2959,-2.2984,-2.2985,-2.3025,-2.3031,-2.3034,-2.3034,-2.3036,-2.3036,-2.3046,-2.3042,-2.3031,-2.3031,-2.303,-2.303,0,-2.2812,-2.2817,-2.2861,-2.2878,-2.2883,-2.2913,-2.2927,-2.2952,-2.2956,-2.299,-2.2998,-2.3006,-2.3036,-2.3038,-2.3072,-2.3073,-2.3122,-2.3117,-2.3116,-2.3116,-2.3148,-2.3145,-2.3249,-2.3263,-2.3171,-2.3172,-2.3172,0,-2.2855,-2.2883,-2.2904,-2.2922,-2.2933,-2.2961,-2.2979,-2.2978,-2.2997,-2.302,-2.3042,-2.3071,-2.3094,-2.3143,-2.3151,-2.3178,-2.3174,-2.3208,-2.3177,-2.3179,-2.3176,-2.3175,-2.3178,-2.3214,-2.3215,-2.3216,-2.3217,0,-2.2932,-2.2934,-2.2959,-2.2986,-2.3007,-2.3028,-2.3048,-2.3063,-2.3065,-2.3086,-2.3117,-2.3135,-2.3171,-2.32,-2.3227,-2.3236,-2.3228,-2.3226,-2.3235,-2.3238,-2.3237,-2.3239,-2.3134,-2.3224,-2.3223,-2.3223,-2.3223,-2.3222,-2.2988,-2.3013,-2.3032,-2.3061,-2.3076,-2.3095,-2.3119,-2.3127,-2.3153,-2.3183,-2.3181,-2.3216,-2.3234,-2.3268,-2.328,-2.3307,-2.3296,-2.3308,-2.3312,-2.3315,-2.3319,-2.3232,-2.3312,-2.3312,-2.3311,-2.3311,-2.3311,0,-2.3066,-2.3078,-2.3105,-2.3133,-2.3156,-2.3146,-2.3167,-2.3187,-2.3218,-2.3236,-2.326,-2.3296,-2.3325,-2.3336,-2.3364,-2.3383,-2.338,-2.3391,-2.339,-2.3393,-2.3327,-2.3318,-2.3393,-2.3393,-2.3393,-2.3393,-2.3393,-2.3393,-2.3109,-2.3151,-2.3155,-2.3204,-2.3216,-2.325,-2.3264,-2.3281,-2.3296,-2.3337,-2.3361,-2.3368,-2.3384,-2.3413,-2.3439,-2.3441,-2.3453,-2.3466,-2.3466,-2.3405,-2.3397,-2.3389,-2.338,-2.3468,-2.3468,-2.353,-2.353,-2.3531]}]]